Orbital Elements at Epoch 2459200.5 (2020-Dec-17.0) TDB
Reference: JPL 21 (heliocentric ecliptic J2000)
Element | Value | Uncertainty (1-sigma) | Units |
e | .1324395883691319 | 6.8257e-08 | |
a | 2.420608453395528 | 1.3535e-08 | au |
q | 2.100024066224983 | 1.595e-07 | au |
i | 8.219012538309149 | 3.2468e-06 | deg |
node | 118.7152358803462 | 4.2169e-05 | deg |
peri | 95.39576099984831 | 4.3922e-05 | deg |
M | 180.9471234719217 | 1.413e-05 | deg |
tp | 2459884.670031497383 (2022-Nov-01.17003150) | 5.7129e-05 | TDB |
period | 1375.578075677739 3.77 | 1.1537e-05 3.159e-08 | d yr |
n | .2617081548225681 | 2.195e-09 | deg/d |
Q | 2.741192840566073 | 1.5327e-08 | au |
|
| | Orbit Determination Parameters
Additional Information
|